Date String (YYYY-MM-DD hh:mm:ss) UTC,Instrument flags,Ambient pressure (hPa),Sample flow (lpm),Bypass flow (lpm),Sample temperature (°C),Ambient temperature (°C),ASC tube jacket temperature (°C),LED temperature (°C),Box temperature (°C),Sample RH (%),Span deviation,Mass concentration (μg/m³),Mass concentration (μg/m³),Mass concentration (μg/m³)
DateTimeUTC,F1_M11,P_M11,Q1_M11,Q2_M11,T1_M11,T2_M11,T3_M11,T4_M11,T5_M11,U1_M11,ZSPAN_M11,X2_M11,X0_M11,X1_M11
2023-02-23 19:00:00,,0822.3,5.00,0.00,22.4,20.5,00.0,31.2,23.9,03.5,0000.0,0004.14,0007.41,0003.90
2023-02-23 19:01:00,,0822.3,5.01,0.00,22.4,20.4,00.0,31.2,23.9,03.5,0000.0,0004.18,0007.49,0003.91
2023-02-23 19:02:00,,0822.4,5.01,0.00,22.4,20.5,00.0,31.2,23.9,03.5,0000.0,0004.19,0007.47,0003.91
2023-02-23 19:03:00,,0822.5,5.03,0.00,22.3,20.5,00.0,31.2,23.9,03.5,0000.0,0004.18,0007.39,0003.90
2023-02-23 19:04:00,,0822.5,4.97,0.00,22.4,21.3,00.0,31.2,24.1,03.5,0000.0,0004.18,0007.39,0003.91
2023-02-23 19:05:00,,0822.6,5.01,0.00,22.5,22.7,00.0,31.2,24.3,03.5,0000.0,0004.16,0007.36,0003.89
2023-02-23 19:06:00,,0822.5,5.04,0.00,22.6,22.8,00.0,31.2,24.4,03.5,0000.0,0004.18,0007.16,0003.89
2023-02-23 19:07:00,,0822.4,5.03,0.00,22.6,22.3,00.0,31.2,24.3,03.5,0000.0,0004.15,0006.65,0003.88
2023-02-23 19:08:00,,0822.4,4.97,0.00,22.6,21.9,00.0,31.2,24.2,03.5,0000.0,0004.13,0006.49,0003.88
2023-02-23 19:09:00,,0822.3,4.98,0.00,22.6,21.6,00.0,31.3,24.2,03.4,0000.0,0004.11,0006.42,0003.87
2023-02-23 19:10:00,,0822.4,4.99,0.00,22.5,21.3,00.0,31.2,24.1,03.5,0000.0,0004.12,0006.52,0003.87
2023-02-23 19:11:00,,0822.4,4.99,0.00,22.5,21.1,00.0,31.2,24.1,03.5,0000.0,0004.15,0006.55,0003.89
2023-02-23 19:12:00,,0822.4,4.99,0.00,22.5,21.0,00.0,31.2,24.1,03.6,0000.0,0004.14,0006.46,0003.90
2023-02-23 19:13:00,,0822.5,5.00,0.00,22.4,20.8,00.0,31.2,24.0,03.6,0000.0,0004.18,0006.62,0003.93
2023-02-23 19:14:00,,0822.6,5.01,0.00,22.4,20.4,00.0,31.2,23.9,03.5,0000.0,0004.22,0006.71,0003.97
2023-02-23 19:15:00,,0822.6,5.00,0.00,22.3,20.1,00.0,31.1,23.7,03.5,0000.0,0004.25,0006.74,0004.00
2023-02-23 19:16:00,,0822.5,5.00,0.00,22.2,20.0,00.0,31.1,23.7,03.5,0000.0,0004.30,0006.82,0004.04
2023-02-23 19:17:00,,0822.5,4.99,0.00,22.2,20.4,00.0,31.1,23.7,03.6,0000.0,0004.33,0007.23,0004.08
2023-02-23 19:18:00,,0822.4,4.99,0.00,22.3,21.8,00.0,31.1,24.1,03.6,0000.0,0004.39,0007.77,0004.13
2023-02-23 19:19:00,,0822.4,5.00,0.00,22.4,22.6,00.0,31.1,24.3,03.6,0000.0,0004.45,0007.85,0004.17
2023-02-23 19:20:00,,0822.4,5.03,0.00,22.4,22.2,00.0,31.1,24.3,03.6,0000.0,0004.51,0007.94,0004.22
2023-02-23 19:21:00,,0822.4,5.00,0.00,22.4,21.7,00.0,31.1,24.1,03.6,0000.0,0004.56,0007.95,0004.27
2023-02-23 19:22:00,,0822.4,4.98,0.00,22.4,21.3,00.0,31.1,24.0,03.6,0000.0,0004.59,0007.93,0004.30
2023-02-23 19:23:00,,0822.4,5.03,0.00,22.4,21.1,00.0,31.1,24.0,03.6,0000.0,0004.63,0007.96,0004.35
2023-02-23 19:24:00,,0822.3,5.01,0.00,22.4,21.0,00.0,31.1,24.0,03.6,0000.0,0004.67,0008.34,0004.38
2023-02-23 19:25:00,,0822.3,5.00,0.00,22.4,20.9,00.0,31.1,24.0,03.6,0000.3,0004.66,0008.83,0004.40
2023-02-23 19:26:00,,0822.4,5.00,0.00,22.3,20.7,00.0,31.1,23.9,03.6,0000.2,0004.64,0009.51,0004.39
2023-02-23 19:27:00,,0822.4,5.00,0.00,22.3,20.6,00.0,31.1,23.9,03.6,0000.0,0004.63,0009.79,0004.38
2023-02-23 19:28:00,,0822.5,4.98,0.00,22.3,20.6,00.0,31.1,23.9,03.7,0000.0,0004.62,0009.70,0004.38
2023-02-23 19:29:00,,0822.4,5.01,0.00,22.3,20.6,00.0,31.1,23.9,03.8,0000.0,0004.61,0009.23,0004.36
2023-02-23 19:30:00,,0822.3,4.99,0.00,22.3,20.6,00.0,31.1,23.9,03.7,0000.0,0004.59,0009.53,0004.35
2023-02-23 19:31:00,,0822.3,5.00,0.00,22.3,20.7,00.0,31.1,23.9,03.7,0000.0,0004.59,0009.62,0004.34
2023-02-23 19:32:00,,0822.3,4.99,0.00,22.3,21.7,00.0,31.1,24.2,03.7,0000.0,0004.63,0009.73,0004.34
2023-02-23 19:33:00,,0822.4,5.05,0.00,22.5,22.9,00.0,31.1,24.4,03.7,0000.0,0004.63,0009.74,0004.34
2023-02-23 19:34:00,,0822.4,4.99,0.00,22.5,22.8,00.0,31.1,24.4,03.7,0000.0,0004.65,0009.78,0004.35
2023-02-23 19:35:00,,0822.4,5.00,0.00,22.6,22.3,00.0,31.1,24.4,03.7,0000.0,0004.66,0009.69,0004.37
2023-02-23 19:36:00,,0822.4,4.99,0.00,22.6,21.9,00.0,31.2,24.3,03.7,0000.0,0004.67,0008.99,0004.40
2023-02-23 19:37:00,,0822.4,4.99,0.00,22.5,21.6,00.0,31.2,24.2,03.7,0000.0,0004.74,0008.82,0004.45
2023-02-23 19:38:00,,0822.4,4.98,0.00,22.5,21.3,00.0,31.2,24.2,03.8,0000.0,0004.80,0008.12,0004.50
2023-02-23 19:39:00,,0822.4,5.01,0.00,22.5,21.1,00.0,31.2,24.1,03.8,0000.0,0004.85,0008.19,0004.53
2023-02-23 19:40:00,,0822.3,5.00,0.00,22.5,20.9,00.0,31.2,24.1,03.8,0000.0,0004.87,0008.21,0004.56
2023-02-23 19:41:00,,0822.3,5.00,0.00,22.4,20.6,00.0,31.2,24.0,03.7,0000.0,0004.94,0008.06,0004.60
2023-02-23 19:42:00,,0822.3,4.99,0.00,22.4,20.5,00.0,31.1,23.9,03.7,0000.0,0004.99,0007.89,0004.63
2023-02-23 19:43:00,,0822.3,5.00,0.00,22.3,20.5,00.0,31.1,23.9,03.7,0000.0,0004.99,0007.85,0004.65
2023-02-23 19:44:00,,0822.3,5.01,0.00,22.3,20.5,00.0,31.1,23.9,03.8,0000.0,0004.97,0007.80,0004.67
2023-02-23 19:45:00,,0822.3,5.00,0.00,22.3,20.5,00.0,31.1,23.9,03.8,0000.0,0004.96,0007.77,0004.68
2023-02-23 19:46:00,,0822.3,4.98,0.00,22.3,20.6,00.0,31.1,23.9,03.7,0000.0,0004.96,0007.79,0004.67
2023-02-23 19:47:00,,0822.3,5.00,0.00,22.3,21.8,00.0,31.1,24.2,03.7,0000.0,0004.97,0007.82,0004.67
2023-02-23 19:48:00,,0822.3,5.04,0.00,22.5,22.9,00.0,31.1,24.4,03.7,0000.0,0004.97,0007.78,0004.66
2023-02-23 19:49:00,,0822.3,5.00,0.00,22.6,22.8,00.0,31.2,24.5,03.7,0000.0,0004.94,0007.72,0004.65
2023-02-23 19:50:00,,0822.3,5.01,0.00,22.6,22.4,00.0,31.2,24.5,03.7,0000.0,0004.90,0007.65,0004.62
2023-02-23 19:51:00,,0822.4,4.98,0.00,22.6,22.1,00.0,31.2,24.4,03.7,0000.0,0004.87,0007.85,0004.60
2023-02-23 19:52:00,,0822.4,5.01,0.00,22.6,21.8,00.0,31.2,24.4,03.7,0000.0,0004.82,0008.41,0004.58
2023-02-23 19:53:00,,0822.4,5.02,0.00,22.6,21.4,00.0,31.2,24.2,03.7,0000.0,0004.82,0008.46,0004.56
2023-02-23 19:54:00,,0822.3,4.99,0.00,22.5,21.0,00.0,31.2,24.1,03.7,0000.0,0004.82,0008.54,0004.55
2023-02-23 19:55:00,,0822.3,5.00,0.00,22.5,20.8,00.0,31.2,24.0,03.7,0000.0,0004.82,0008.55,0004.52
2023-02-23 19:56:00,,0822.4,5.00,0.00,22.4,20.7,00.0,31.2,24.0,03.7,0000.0,0004.82,0008.59,0004.50
2023-02-23 19:57:00,,0822.4,5.00,0.00,22.4,20.7,00.0,31.2,24.0,03.7,0001.2,0004.79,0008.59,0004.47
2023-02-23 19:58:00,,0822.4,5.01,0.00,22.4,20.7,00.0,31.2,24.0,03.8,0001.6,0004.76,0008.55,0004.43
2023-02-23 19:59:00,,0822.3,5.02,0.00,22.4,20.7,00.0,31.2,24.0,03.8,0001.6,0004.71,0008.45,0004.39
